1494306000.77,22974,12.94,72500.5,-9.17,-9.61,-9.61,0,*55
1494306002.04,22975,12.94,72506.3,-9.17,-9.61,-9.57,0,*51
1494306003.31,22976,12.94,72500.0,-9.17,-9.61,-9.57,0,*52
1494306004.58,22977,12.94,72518.0,-9.17,-9.61,-9.61,0,*56
1494306005.85,22978,12.94,72504.5,-9.15,-9.61,-9.57,0,*5E
1494306007.12,22979,12.94,72508.5,-9.15,-9.61,-9.57,0,*5F
1494306008.39,22980,12.94,72514.3,-9.17,-9.57,-9.57,0,*5E
1494306009.66,22981,12.94,72516.8,-9.17,-9.57,-9.57,0,*5F
1494306010.93,22982,12.94,72516.5,-9.15,-9.57,-9.49,0,*51
1494306012.19,22983,12.94,72518.3,-9.17,-9.57,-9.57,0,*5D
1494306013.47,22984,12.94,72522.5,-9.15,-9.45,-9.49,0,*54
1494306014.75,22985,12.94,72510.0,-9.17,-9.49,-9.45,0,*57
1494306016.03,22986,12.94,72506.3,-9.17,-9.49,-9.49,0,*58
1494306017.3,22987,12.94,72518.5,-9.15,-9.49,-9.49,0,*5B
1494306018.57,22988,12.94,72510.3,-9.15,-9.49,-9.57,0,*5B
1494306019.84,22989,12.94,72520.3,-9.15,-9.57,-9.57,0,*55
1494306021.11,22990,12.94,72506.3,-9.15,-9.57,-9.57,0,*5D
1494306022.37,22991,12.94,72522.8,-9.17,-9.57,-9.57,0,*5E
1494306023.64,22992,12.94,72522.0,-9.15,-9.61,-9.57,0,*5A
1494306024.91,22993,12.94,72524.8,-9.15,-9.57,-9.61,0,*5B
1494306026.18,22994,12.94,72526.3,-9.15,-9.61,-9.57,0,*5C
1494306027.45,22995,12.94,72510.8,-9.15,-9.57,-9.57,0,*58
1494306028.71,22996,12.94,72532.0,-9.17,-9.57,-9.57,0,*59
1494306029.98,22997,12.94,72512.8,-9.15,-9.57,-9.57,0,*5A
1494306031.25,22998,12.94,72508.8,-9.17,-9.57,-9.57,0,*57
1494306032.51,22999,12.94,72516.5,-9.17,-9.57,-9.57,0,*56
1494306033.79,23000,12.94,72526.3,-9.17,-9.49,-9.57,0,*51
1494306035.07,23001,12.94,72508.5,-9.17,-9.45,-9.45,0,*5F
1494306036.35,23002,12.94,72510.0,-9.15,-9.45,-9.49,0,*52
1494306037.62,23003,12.94,72510.8,-9.15,-9.49,-9.45,0,*53
1494306038.9,23004,12.94,72512.8,-9.17,-9.49,-9.49,0,*5A
1494306040.17,23005,12.94,72508.8,-9.15,-9.57,-9.45,0,*5A
1494306041.44,23006,12.94,72518.8,-9.17,-9.57,-9.49,0,*57
1494306042.71,23007,12.94,72520.3,-9.17,-9.57,-9.49,0,*56
1494306043.98,23008,12.94,72534.3,-9.15,-9.57,-9.49,0,*5B
1494306045.25,23009,12.94,72534.3,-9.15,-9.61,-9.57,0,*50
1494306046.53,23010,12.94,72536.5,-9.15,-9.49,-9.49,0,*5D
1494306047.8,23011,12.94,72530.5,-9.15,-9.49,-9.49,0,*5C
1494306049.08,23012,12.94,72516.8,-9.17,-9.45,-9.49,0,*51
1494306050.36,23013,12.94,72530.3,-9.17,-9.45,-9.49,0,*50
1494306051.64,23014,12.94,72514.8,-9.15,-9.49,-9.45,0,*55
1494306052.9,23015,12.94,72514.8,-9.15,-9.57,-9.57,0,*58
1494306054.17,23016,12.94,72504.0,-9.15,-9.57,-9.57,0,*5B
1494306055.44,23017,12.94,72508.8,-9.15,-9.61,-9.49,0,*50
1494306056.71,23018,12.94,72530.5,-9.15,-9.57,-9.57,0,*55
1494306057.98,23019,12.94,72506.8,-9.15,-9.49,-9.57,0,*5B
1494306059.26,23020,12.94,72518.3,-9.15,-9.45,-9.49,0,*52
1494306060.53,23021,12.94,72522.5,-9.15,-9.49,-9.49,0,*5F
1494306061.81,23022,12.94,72522.3,-9.15,-9.49,-9.45,0,*50
1494306063.09,23023,12.94,72516.5,-9.15,-9.45,-9.45,0,*5D
1494306064.37,23024,12.94,72520.8,-9.15,-9.45,-9.45,0,*5A
1494306065.64,23025,12.94,72524.8,-9.15,-9.49,-9.45,0,*57
1494306066.91,23026,12.94,72526.8,-9.15,-9.57,-9.57,0,*58
1494306068.18,23027,12.94,72524.5,-9.17,-9.57,-9.57,0,*5B
1494306069.44,23028,12.94,72522.3,-9.15,-9.57,-9.49,0,*59
1494306070.72,23029,12.94,72524.5,-9.15,-9.45,-9.49,0,*5B
1494306072.0,23030,12.94,72534.0,-9.17,-9.49,-9.45,0,*51
1494306073.28,23031,12.94,72528.5,-9.17,-9.49,-9.49,0,*5C
1494306074.54,23032,12.94,72520.5,-9.15,-9.57,-9.57,0,*5D
1494306075.81,23033,12.94,72530.8,-9.15,-9.57,-9.61,0,*59
1494306077.08,23034,12.94,72524.8,-9.15,-9.57,-9.57,0,*5B
1494306078.35,23035,12.94,72530.8,-9.15,-9.45,-9.61,0,*5C
1494306079.63,23036,12.94,72532.5,-9.15,-9.45,-9.49,0,*55
1494306080.91,23037,12.94,72534.8,-9.15,-9.49,-9.49,0,*58
1494306082.18,23038,12.94,72538.3,-9.15,-9.49,-9.49,0,*57
1494306083.46,23039,12.94,72526.8,-9.15,-9.49,-9.45,0,*5A
1494306084.74,23040,12.94,72528.3,-9.15,-9.49,-9.49,0,*58
1494306086.01,23041,12.94,72494.3,-9.15,-9.49,-9.49,0,*59
1494306087.29,23042,12.94,72490.0,-9.15,-9.49,-9.49,0,*5A
1494306088.56,23043,12.94,72494.3,-9.15,-9.45,-9.45,0,*5B
1494306089.84,23044,12.94,72504.8,-9.15,-9.45,-9.49,0,*50
1494306091.12,23045,12.94,72506.0,-9.15,-9.45,-9.37,0,*58
1494306092.4,23046,12.94,72512.0,-9.15,-9.45,-9.45,0,*5E
1494306093.68,23047,12.94,72508.8,-9.15,-9.45,-9.49,0,*53
1494306094.96,23048,12.94,72504.5,-9.15,-9.45,-9.45,0,*50
1494306096.24,23049,12.94,72508.5,-9.15,-9.45,-9.45,0,*51
1494306097.51,23050,12.94,72518.5,-9.15,-9.49,-9.45,0,*55
1494306098.79,23051,12.94,72512.0,-9.15,-9.49,-9.49,0,*58
1494306100.06,23052,12.94,72510.8,-9.15,-9.57,-9.49,0,*54
1494306101.34,23053,12.94,72522.0,-9.15,-9.45,-9.49,0,*56
1494306102.61,23054,12.94,72528.8,-9.15,-9.49,-9.49,0,*5D
1494306103.87,23055,12.94,72518.0,-9.13,-9.45,-9.45,0,*5A
1494306105.12,23056,12.94,72528.5,-9.13,-9.45,-9.45,0,*59
1494306106.38,23057,12.94,72516.8,-9.13,-9.45,-9.45,0,*58
1494306107.64,23058,12.94,72518.3,-9.13,-9.41,-9.41,0,*57
1494306108.89,23059,12.94,72518.3,-9.13,-9.45,-9.45,0,*56
1494306110.15,23060,12.94,72510.3,-9.13,-9.45,-9.45,0,*5C
1494306111.4,23061,12.94,72492.0,-9.13,-9.53,-9.45,0,*5A
1494306112.65,23062,12.94,72492.0,-9.13,-9.45,-9.45,0,*5E
1494306113.91,23063,12.94,72510.3,-9.13,-9.41,-9.45,0,*5B
1494306115.17,23064,12.94,72500.0,-9.13,-9.45,-9.45,0,*58
1494306116.42,23065,12.94,72506.0,-9.13,-9.45,-9.41,0,*5D
1494306117.68,23066,12.94,72500.0,-9.13,-9.41,-9.41,0,*5A
1494306118.93,23067,12.94,72498.5,-9.13,-9.45,-9.41,0,*5F
1494306120.19,23068,12.94,72508.3,-9.13,-9.45,-9.45,0,*54
1494306121.44,23069,12.94,72504.5,-9.13,-9.41,-9.41,0,*55
1494306122.7,23070,12.94,72518.3,-9.13,-9.45,-9.45,0,*5D
1494306123.95,23071,12.94,72492.3,-9.13,-9.53,-9.45,0,*5B
1494306125.23,23072,12.94,72506.8,-9.15,-9.49,-9.45,0,*55
1494306126.48,23073,12.94,72512.5,-9.13,-9.45,-9.45,0,*5E
1494306127.74,23074,12.94,72512.5,-9.13,-9.53,-9.53,0,*59
1494306128.99,23075,12.94,72514.8,-9.13,-9.53,-9.53,0,*58
1494306130.25,23076,12.94,72518.5,-9.13,-9.45,-9.45,0,*5B
1494306131.5,23077,12.94,72518.5,-9.13,-9.45,-9.45,0,*5A
1494306132.78,23078,12.94,72512.0,-9.15,-9.49,-9.45,0,*5F
1494306134.05,23079,12.94,72514.0,-9.15,-9.57,-9.49,0,*5D
1494306135.32,23080,12.94,72520.0,-9.15,-9.57,-9.45,0,*57
1494306136.59,23081,12.94,72516.5,-9.15,-9.49,-9.49,0,*55
1494306137.85,23082,12.94,72510.8,-9.13,-9.45,-9.45,0,*50
1494306139.11,23083,12.94,72516.3,-9.13,-9.45,-9.45,0,*51
1494306140.36,23084,12.94,72502.5,-9.13,-9.53,-9.45,0,*51
1494306141.63,23085,12.94,72512.0,-9.15,-9.49,-9.57,0,*5E
1494306142.9,23086,12.94,72512.8,-9.15,-9.61,-9.57,0,*57
1494306144.17,23087,12.94,72518.5,-9.15,-9.61,-9.61,0,*53
1494306145.44,23088,12.94,72512.8,-9.15,-9.61,-9.57,0,*59
1494306146.71,23089,12.94,72514.3,-9.15,-9.57,-9.49,0,*52
1494306147.96,23090,12.94,72512.5,-9.13,-9.53,-9.45,0,*54
1494306149.23,23091,12.94,72512.5,-9.15,-9.57,-9.49,0,*5B
1494306150.5,23092,12.94,72522.5,-9.15,-9.49,-9.49,0,*57
1494306151.78,23093,12.94,72496.8,-9.15,-9.49,-9.49,0,*56
1494306153.06,23094,12.94,72490.8,-9.15,-9.49,-9.45,0,*5D
1494306154.31,23095,12.94,72496.8,-9.13,-9.45,-9.45,0,*56
1494306155.59,23096,12.94,72514.5,-9.15,-9.49,-9.45,0,*5F
1494306156.85,23097,12.94,72514.3,-9.15,-9.57,-9.57,0,*52
1494306158.11,23098,12.94,72524.8,-9.13,-9.53,-9.53,0,*5B
1494306159.35,23099,12.94,72506.5,-9.13,-9.57,-9.57,0,*5A
1494306160.6,23100,12.94,72510.3,-9.13,-9.57,-9.53,0,*5F
1494306161.85,23101,12.94,72504.3,-9.13,-9.57,-9.53,0,*5E
1494306163.1,23102,12.94,72500.8,-9.13,-9.45,-9.53,0,*5E
1494306164.36,23103,12.94,72504.5,-9.13,-9.53,-9.53,0,*58
1494306165.61,23104,12.94,72508.0,-9.13,-9.45,-9.53,0,*58
1494306166.87,23105,12.94,72500.0,-9.13,-9.45,-9.53,0,*59
1494306168.14,23106,12.94,72514.3,-9.15,-9.57,-9.57,0,*5B
1494306169.4,23107,12.94,72510.5,-9.15,-9.57,-9.61,0,*5F
1494306170.67,23108,12.94,72510.5,-9.15,-9.61,-9.57,0,*50
1494306171.95,23109,12.94,72512.5,-9.15,-9.61,-9.61,0,*54
1494306173.21,23110,12.94,72514.5,-9.15,-9.61,-9.57,0,*59
1494306174.47,23111,12.94,72514.5,-9.13,-9.53,-9.53,0,*5B
1494306175.72,23112,12.94,72516.3,-9.13,-9.53,-9.45,0,*5F
1494306176.98,23113,12.94,72518.8,-9.13,-9.45,-9.45,0,*59
1494306178.23,23114,12.94,72522.0,-9.13,-9.45,-9.45,0,*5E
1494306179.49,23115,12.94,72514.0,-9.13,-9.45,-9.45,0,*5F
1494306180.74,23116,12.94,72514.5,-9.13,-9.53,-9.41,0,*5F
1494306181.99,23117,12.94,72502.5,-9.13,-9.53,-9.45,0,*5A
1494306183.24,23118,12.94,72506.5,-9.13,-9.53,-9.53,0,*52
1494306184.49,23119,12.94,72506.0,-9.13,-9.53,-9.53,0,*53
1494306185.74,23120,12.94,72504.0,-9.13,-9.57,-9.53,0,*5D
1494306187.01,23121,12.94,72506.0,-9.15,-9.57,-9.57,0,*5E
1494306188.26,23122,12.94,72500.0,-9.13,-9.53,-9.53,0,*5B
1494306189.51,23123,12.94,72506.5,-9.13,-9.53,-9.57,0,*5E
1494306190.78,23124,12.94,72512.5,-9.15,-9.61,-9.49,0,*51
1494306192.03,23125,12.94,72508.8,-9.15,-9.71,-9.61,0,*5B
1494306193.27,23126,12.94,72496.5,-9.15,-9.71,-9.71,0,*59
1494306194.52,23127,12.94,72504.0,-9.15,-9.71,-9.61,0,*59
1494306195.78,23128,12.94,72506.0,-9.15,-9.71,-9.61,0,*56
1494306197.03,23129,12.94,72498.3,-9.15,-9.71,-9.57,0,*52
1494306198.3,23130,12.94,72504.8,-9.15,-9.57,-9.57,0,*5E
1494306199.57,23131,12.94,72504.8,-9.17,-9.57,-9.61,0,*58
1494306200.84,23132,12.94,72500.0,-9.15,-9.61,-9.61,0,*5C
1494306202.1,23133,12.94,72502.0,-9.15,-9.57,-9.57,0,*5D
1494306203.37,23134,12.94,72500.3,-9.15,-9.57,-9.57,0,*5A
1494306204.64,23135,12.94,72512.5,-9.15,-9.61,-9.61,0,*5B
1494306205.91,23136,12.94,72502.0,-9.15,-9.61,-9.61,0,*58
1494306207.18,23137,12.94,72508.3,-9.15,-9.61,-9.57,0,*5C
1494306208.46,23138,12.94,72514.5,-9.15,-9.61,-9.61,0,*56
1494306209.71,23139,12.94,72510.0,-9.17,-9.61,-9.71,0,*54
1494306210.98,23140,12.94,72514.5,-9.15,-9.61,-9.61,0,*59
1494306212.25,23141,12.94,72512.5,-9.15,-9.57,-9.61,0,*5D
1494306213.52,23142,12.94,72514.8,-9.15,-9.61,-9.61,0,*5B
1494306214.79,23143,12.94,72510.3,-9.15,-9.61,-9.57,0,*5F
1494306216.06,23144,12.94,72512.3,-9.17,-9.61,-9.57,0,*5A
1494306217.33,23145,12.94,72514.5,-9.15,-9.61,-9.61,0,*5C
1494306218.6,23146,12.94,72516.0,-9.15,-9.57,-9.57,0,*5F
1494306219.87,23147,12.94,72512.0,-9.17,-9.61,-9.57,0,*59
1494306221.14,23148,12.94,72518.3,-9.15,-9.57,-9.61,0,*54
1494306222.41,23149,12.94,72512.8,-9.17,-9.57,-9.57,0,*52
1494306223.68,23150,12.94,72512.3,-9.15,-9.49,-9.57,0,*57
1494306224.94,23151,12.94,72504.8,-9.15,-9.57,-9.57,0,*59
1494306226.22,23152,12.94,72504.3,-9.17,-9.49,-9.45,0,*54
1494306227.5,23153,12.94,72506.3,-9.15,-9.49,-9.49,0,*5B
1494306228.77,23154,12.94,72512.5,-9.17,-9.57,-9.49,0,*51
1494306230.04,23155,12.94,72508.3,-9.15,-9.61,-9.57,0,*58
1494306231.31,23156,12.94,72508.3,-9.15,-9.61,-9.61,0,*5E
1494306232.58,23157,12.94,72508.5,-9.15,-9.57,-9.61,0,*5A
1494306233.85,23158,12.94,72510.5,-9.15,-9.61,-9.61,0,*50
1494306235.12,23159,12.94,72508.3,-9.17,-9.61,-9.57,0,*56
1494306236.39,23160,12.94,72508.8,-9.15,-9.61,-9.61,0,*5B
1494306237.66,23161,12.94,72516.8,-9.15,-9.61,-9.57,0,*5F
1494306238.93,23162,12.94,72508.0,-9.17,-9.61,-9.57,0,*5E
1494306240.2,23163,12.94,72510.5,-9.17,-9.57,-9.61,0,*5F
1494306241.47,23164,12.94,72510.5,-9.15,-9.57,-9.57,0,*5F
1494306242.73,23165,12.94,72518.0,-9.15,-9.57,-9.57,0,*5E
1494306244.0,23166,12.94,72516.0,-9.15,-9.61,-9.57,0,*58
1494306245.28,23167,12.94,72518.5,-9.17,-9.61,-9.61,0,*5E
1494306246.53,23168,12.94,72514.0,-9.15,-9.61,-9.71,0,*52
1494306247.76,23169,12.94,72518.0,-9.15,-9.71,-9.71,0,*52
1494306249.02,23170,12.94,72484.8,-9.17,-9.71,-9.61,0,*59
1494306250.27,23171,12.94,72490.5,-9.15,-9.61,-9.71,0,*5A
1494306251.52,23172,12.94,72498.0,-9.17,-9.71,-9.61,0,*5B
1494306252.8,23173,12.94,72502.8,-9.17,-9.61,-9.61,0,*5B
1494306254.05,23174,12.94,72508.0,-9.15,-9.71,-9.57,0,*5A
1494306255.32,23175,12.94,72510.8,-9.15,-9.61,-9.61,0,*5F
1494306256.59,23176,12.94,72506.5,-9.17,-9.61,-9.57,0,*5B
1494306257.85,23177,12.94,72506.8,-9.17,-9.71,-9.57,0,*5B
1494306259.1,23178,12.94,72514.8,-9.15,-9.75,-9.57,0,*52
1494306260.36,23179,12.94,72500.0,-9.17,-9.71,-9.61,0,*50
1494306261.62,23180,12.94,72500.0,-9.15,-9.57,-9.57,0,*55
1494306262.87,23181,12.94,72512.5,-9.17,-9.61,-9.71,0,*57
1494306264.15,23182,12.94,72500.8,-9.17,-9.61,-9.61,0,*55
1494306265.4,23183,12.94,72504.3,-9.17,-9.71,-9.61,0,*55
1494306266.63,23184,12.94,72510.8,-9.17,-9.75,-9.75,0,*53
1494306267.91,23185,12.94,72506.5,-9.17,-9.61,-9.61,0,*52
1494306269.18,23186,12.94,72502.5,-9.15,-9.61,-9.57,0,*56
1494306270.45,23187,12.94,72488.0,-9.17,-9.57,-9.61,0,*55
1494306271.72,23188,12.94,72476.8,-9.15,-9.61,-9.61,0,*5D
1494306272.99,23189,12.94,72476.0,-9.17,-9.61,-9.61,0,*5E
1494306274.24,23190,12.94,72498.8,-9.17,-9.57,-9.71,0,*52
1494306275.52,23191,12.94,72508.0,-9.15,-9.61,-9.61,0,*55
1494306276.78,23192,12.94,72520.3,-9.17,-9.57,-9.57,0,*54
1494306278.05,23193,12.94,72522.5,-9.17,-9.61,-9.57,0,*50
1494306279.32,23194,12.94,72516.0,-9.15,-9.61,-9.61,0,*50
1494306280.6,23195,12.94,72522.8,-9.17,-9.61,-9.57,0,*56
1494306281.87,23196,12.94,72524.5,-9.17,-9.57,-9.61,0,*55
1494306283.14,23197,12.94,72524.5,-9.17,-9.57,-9.61,0,*54
1494306284.41,23198,12.94,72522.3,-9.17,-9.61,-9.57,0,*5B
1494306285.68,23199,12.94,72526.0,-9.17,-9.61,-9.61,0,*5F
1494306286.95,23200,12.94,72534.5,-9.17,-9.61,-9.57,0,*59
1494306288.22,23201,12.94,72530.3,-9.17,-9.57,-9.61,0,*58
1494306289.5,23202,12.94,72528.3,-9.17,-9.61,-9.61,0,*5E
1494306290.77,23203,12.94,72534.0,-9.17,-9.57,-9.57,0,*5F
1494306292.04,23204,12.94,72528.8,-9.17,-9.61,-9.57,0,*5D
1494306293.31,23205,12.94,72526.0,-9.17,-9.57,-9.61,0,*5C
1494306294.58,23206,12.94,72512.3,-9.17,-9.57,-9.61,0,*5F
1494306295.85,23207,12.94,72504.0,-9.17,-9.61,-9.57,0,*5E
1494306297.12,23208,12.94,72490.8,-9.17,-9.61,-9.61,0,*54
1494306298.39,23209,12.94,72494.3,-9.17,-9.61,-9.57,0,*50
1494306299.67,23210,12.94,72502.8,-9.17,-9.57,-9.61,0,*58
1494306300.94,23211,12.94,72508.8,-9.17,-9.61,-9.57,0,*59
1494306302.2,23212,12.94,72524.5,-9.17,-9.57,-9.57,0,*5F
1494306303.47,23213,12.94,72530.8,-9.17,-9.57,-9.57,0,*5E
1494306304.74,23214,12.94,72524.3,-9.17,-9.61,-9.61,0,*59
1494306306.02,23215,12.94,72520.5,-9.17,-9.61,-9.61,0,*58
1494306307.29,23216,12.94,72506.0,-9.17,-9.57,-9.57,0,*5B
1494306308.55,23217,12.94,72498.8,-9.17,-9.57,-9.57,0,*5A
1494306309.82,23218,12.94,72526.0,-9.17,-9.57,-9.57,0,*55
1494306311.07,23219,12.94,72536.0,-9.19,-9.61,-9.61,0,*5A
1494306312.35,23220,12.94,72512.3,-9.17,-9.61,-9.49,0,*54
1494306313.6,23221,12.94,72526.8,-9.19,-9.53,-9.53,0,*51
1494306314.85,23222,12.94,72508.0,-9.19,-9.53,-9.53,0,*52
1494306316.1,23223,12.94,72504.3,-9.19,-9.53,-9.49,0,*58
1494306317.36,23224,12.94,72494.5,-9.19,-9.53,-9.61,0,*55
1494306318.63,23225,12.94,72520.0,-9.17,-9.49,-9.57,0,*54
1494306319.9,23226,12.94,72512.0,-9.17,-9.61,-9.49,0,*52
1494306321.17,23227,12.94,72518.5,-9.15,-9.57,-9.61,0,*5E
1494306322.45,23228,12.94,72520.5,-9.17,-9.61,-9.61,0,*56
1494306323.72,23229,12.94,72516.3,-9.17,-9.61,-9.61,0,*57
1494306324.99,23230,12.94,72530.5,-9.17,-9.61,-9.61,0,*5F
1494306326.27,23231,12.94,72524.3,-9.17,-9.61,-9.57,0,*5B
1494306327.54,23232,12.94,72518.0,-9.17,-9.61,-9.57,0,*58
1494306328.8,23233,12.94,72526.3,-9.17,-9.57,-9.57,0,*5C
1494306330.08,23234,12.94,72522.5,-9.17,-9.57,-9.49,0,*54
1494306331.33,23235,12.94,72526.3,-9.19,-9.61,-9.53,0,*55
1494306332.58,23236,12.94,72520.5,-9.19,-9.53,-9.53,0,*57
1494306333.83,23237,12.94,72514.8,-9.19,-9.53,-9.49,0,*5D
1494306335.1,23238,12.94,72520.8,-9.17,-9.57,-9.49,0,*58
1494306336.38,23239,12.94,72526.5,-9.17,-9.49,-9.49,0,*56
1494306337.64,23240,12.94,72520.8,-9.19,-9.49,-9.53,0,*5D
1494306338.91,23241,12.94,72518.5,-9.17,-9.49,-9.49,0,*59
1494306340.12,23242,12.94,72526.0,-9.19,-9.67,-9.67,0,*54
1494306341.32,23243,12.94,72520.5,-9.19,-9.67,-9.67,0,*55
1494306342.55,23244,12.94,72520.0,-9.19,-9.67,-9.61,0,*54
1494306343.82,23245,12.94,72528.0,-9.17,-9.57,-9.49,0,*52
1494306345.09,23246,12.94,72522.5,-9.17,-9.57,-9.49,0,*51
1494306346.37,23247,12.94,72512.8,-9.17,-9.57,-9.45,0,*5C
1494306347.63,23248,12.94,72508.3,-9.17,-9.57,-9.57,0,*50
1494306348.9,23249,12.94,72506.5,-9.17,-9.57,-9.57,0,*51
1494306350.17,23250,12.94,72500.3,-9.17,-9.57,-9.57,0,*59
1494306351.44,23251,12.94,72498.3,-9.15,-9.61,-9.61,0,*5A
1494306352.71,23252,12.94,72502.0,-9.17,-9.57,-9.61,0,*5E
1494306353.98,23253,12.94,72492.5,-9.17,-9.57,-9.57,0,*5A
1494306355.26,23254,12.94,72490.8,-9.17,-9.49,-9.49,0,*5D
1494306356.53,23255,12.94,72502.0,-9.17,-9.57,-9.49,0,*53
1494306357.79,23256,12.94,72510.3,-9.17,-9.57,-9.57,0,*5F
1494306359.06,23257,12.94,72514.0,-9.17,-9.57,-9.57,0,*5E
1494306360.33,23258,12.94,72510.8,-9.17,-9.57,-9.49,0,*5E
1494306361.61,23259,12.94,72500.3,-9.17,-9.49,-9.49,0,*50
1494306362.88,23260,12.94,72500.3,-9.17,-9.57,-9.45,0,*59
1494306364.16,23261,12.94,72498.0,-9.17,-9.57,-9.45,0,*58
1494306365.43,23262,12.94,72498.3,-9.17,-9.57,-9.45,0,*5B
1494306366.68,23263,12.94,72496.0,-9.19,-9.53,-9.49,0,*5C
1494306367.96,23264,12.94,72500.5,-9.17,-9.49,-9.49,0,*5E
1494306369.23,23265,12.94,72506.0,-9.17,-9.49,-9.57,0,*50
1494306370.51,23266,12.94,72510.3,-9.17,-9.49,-9.49,0,*5C
1494306371.77,23267,12.94,72506.0,-9.17,-9.57,-9.57,0,*5D
1494306373.05,23268,12.94,72512.3,-9.17,-9.57,-9.49,0,*5D
1494306374.31,23269,12.94,72516.5,-9.17,-9.57,-9.57,0,*53
1494306375.58,23270,12.94,72518.3,-9.17,-9.61,-9.57,0,*5E
1494306376.81,23271,12.94,72520.5,-9.19,-9.61,-9.67,0,*52
1494306378.06,23272,12.94,72516.0,-9.19,-9.61,-9.61,0,*57
1494306379.29,23273,12.94,72520.0,-9.19,-9.61,-9.67,0,*50
1494306380.54,23274,12.94,72508.5,-9.19,-9.61,-9.61,0,*51
1494306381.79,23275,12.94,72510.8,-9.19,-9.61,-9.61,0,*50
1494306383.04,23276,12.94,72506.3,-9.19,-9.61,-9.61,0,*53
1494306384.31,23277,12.94,72508.8,-9.17,-9.57,-9.57,0,*5C
1494306385.58,23278,12.94,72506.5,-9.17,-9.57,-9.61,0,*56
1494306386.84,23279,12.94,72512.3,-9.17,-9.57,-9.57,0,*52
1494306388.12,23280,12.94,72510.3,-9.17,-9.61,-9.61,0,*54
1494306389.38,23281,12.94,72518.5,-9.17,-9.71,-9.61,0,*54
1494306390.65,23282,12.94,72522.3,-9.17,-9.61,-9.61,0,*56
1494306391.92,23283,12.94,72516.5,-9.17,-9.61,-9.57,0,*52
1494306393.18,23284,12.94,72516.0,-9.17,-9.71,-9.57,0,*54
1494306394.45,23285,12.94,72512.5,-9.17,-9.61,-9.61,0,*51
1494306395.68,23286,12.94,72518.0,-9.21,-9.75,-9.67,0,*54
1494306396.88,23287,12.94,72526.3,-9.19,-9.67,-9.67,0,*5D
1494306398.11,23288,12.94,72522.0,-9.21,-9.67,-9.67,0,*59
1494306399.32,23289,12.94,72516.3,-9.19,-9.75,-9.67,0,*50
1494306400.52,23290,12.94,72516.3,-9.19,-9.67,-9.67,0,*5B
1494306401.75,23291,12.94,72512.8,-9.19,-9.61,-9.75,0,*5F
1494306402.95,23292,12.94,72512.3,-9.19,-9.67,-9.75,0,*5A
1494306404.16,23293,12.94,72518.0,-9.19,-9.67,-9.75,0,*5B
1494306405.36,23294,12.94,72526.0,-9.19,-9.75,-9.67,0,*5C
1494306406.57,23295,12.94,72522.8,-9.19,-9.75,-9.67,0,*5D
1494306407.8,23296,12.94,72518.8,-9.21,-9.75,-9.75,0,*56
1494306409.01,23297,12.94,72526.5,-9.19,-9.79,-9.75,0,*50
1494306410.21,23298,12.94,72526.8,-9.19,-9.75,-9.75,0,*53
1494306411.42,23299,12.94,72526.3,-9.19,-9.75,-9.79,0,*5E
1494306412.62,23300,12.94,72524.0,-9.19,-9.67,-9.79,0,*5C
1494306413.83,23301,12.94,72528.5,-9.19,-9.75,-9.75,0,*52
1494306415.06,23302,12.94,72528.3,-9.19,-9.75,-9.61,0,*54
1494306416.29,23303,12.94,72532.5,-9.21,-9.67,-9.67,0,*5B
1494306417.52,23304,12.94,72532.8,-9.21,-9.67,-9.67,0,*5C
1494306418.74,23305,12.94,72530.8,-9.21,-9.67,-9.67,0,*5D
1494306419.97,23306,12.94,72506.3,-9.21,-9.67,-9.75,0,*5D
1494306421.2,23307,12.94,72504.8,-9.21,-9.75,-9.75,0,*5F
1494306422.43,23308,12.94,72510.8,-9.21,-9.75,-9.79,0,*5C
1494306423.64,23309,12.94,72522.8,-9.19,-9.75,-9.75,0,*5A
1494306424.84,23310,12.94,72520.3,-9.19,-9.75,-9.75,0,*52
1494306426.05,23311,12.94,72500.5,-9.19,-9.75,-9.75,0,*53
1494306427.28,23312,12.94,72522.8,-9.21,-9.75,-9.75,0,*5B
1494306428.51,23313,12.94,72510.0,-9.21,-9.67,-9.67,0,*5A
1494306429.71,23314,12.94,72504.8,-9.23,-9.71,-9.71,0,*5F
1494306430.96,23315,12.94,72502.8,-9.21,-9.67,-9.61,0,*5A
1494306432.21,23316,12.94,72514.8,-9.21,-9.67,-9.61,0,*59
1494306433.49,23317,12.94,72516.8,-9.21,-9.61,-9.61,0,*5E
1494306434.74,23318,12.94,72508.5,-9.21,-9.61,-9.67,0,*57
1494306436.01,23319,12.94,72510.5,-9.21,-9.61,-9.61,0,*50
1494306437.21,23320,12.94,72518.0,-9.23,-9.67,-9.67,0,*58
1494306438.41,23321,12.94,72520.0,-9.23,-9.67,-9.71,0,*5E
1494306439.68,23322,12.94,72506.3,-9.21,-9.61,-9.61,0,*58
1494306440.95,23323,12.94,72512.8,-9.21,-9.61,-9.61,0,*59
1494306442.2,23324,12.94,72526.0,-9.21,-9.67,-9.61,0,*58
1494306443.41,23325,12.94,72518.0,-9.19,-9.67,-9.67,0,*54
1494306444.68,23326,12.94,72526.8,-9.21,-9.61,-9.61,0,*5C
1494306445.96,23327,12.94,72522.0,-9.21,-9.61,-9.61,0,*5D
1494306447.21,23328,12.94,72514.5,-9.21,-9.67,-9.61,0,*54
1494306448.44,23329,12.94,72514.3,-9.21,-9.67,-9.67,0,*53
1494306449.69,23330,12.94,72514.5,-9.21,-9.61,-9.67,0,*5D
1494306450.94,23331,12.94,72520.3,-9.21,-9.61,-9.67,0,*5C
1494306452.19,23332,12.94,72516.0,-9.21,-9.67,-9.61,0,*5F
1494306453.44,23333,12.94,72526.0,-9.21,-9.61,-9.67,0,*5E
1494306454.69,23334,12.94,72512.0,-9.21,-9.67,-9.61,0,*59
1494306455.92,23335,12.94,72524.5,-9.21,-9.75,-9.67,0,*5D
1494306457.15,23336,12.94,72530.3,-9.21,-9.67,-9.75,0,*5E
1494306458.37,23337,12.94,72526.8,-9.21,-9.67,-9.75,0,*5F
1494306459.6,23338,12.94,72520.8,-9.21,-9.75,-9.75,0,*53
1494306460.83,23339,12.94,72522.8,-9.21,-9.79,-9.67,0,*5D
1494306462.08,23340,12.94,72532.3,-9.21,-9.67,-9.61,0,*5A
1494306463.33,23341,12.94,72532.0,-9.21,-9.61,-9.67,0,*5B
1494306464.56,23342,12.94,72528.5,-9.21,-9.67,-9.67,0,*5E
1494306465.79,23343,12.94,72522.5,-9.21,-9.75,-9.75,0,*5F
1494306467.02,23344,12.94,72508.5,-9.21,-9.75,-9.75,0,*58
1494306468.27,23345,12.94,72526.3,-9.21,-9.61,-9.67,0,*5F
1494306469.52,23346,12.94,72524.3,-9.21,-9.61,-9.67,0,*5C
1494306470.75,23347,12.94,72512.5,-9.21,-9.67,-9.67,0,*5B
1494306471.95,23348,12.94,72514.5,-9.23,-9.71,-9.67,0,*51
1494306473.17,23349,12.94,72514.0,-9.27,-9.71,-9.67,0,*54
1494306474.37,23350,12.94,72520.8,-9.23,-9.71,-9.67,0,*58
1494306475.57,23351,12.94,72512.0,-9.23,-9.71,-9.71,0,*5E
1494306476.8,23352,12.94,72516.3,-9.21,-9.67,-9.67,0,*5F
1494306478.0,23353,12.94,72522.0,-9.23,-9.67,-9.67,0,*5C
1494306479.22,23354,12.94,72522.8,-9.23,-9.57,-9.67,0,*58
1494306480.42,23355,12.94,72530.3,-9.23,-9.67,-9.67,0,*5A
1494306481.61,23356,12.94,72526.3,-9.23,-9.67,-9.67,0,*59
1494306482.81,23357,12.94,72524.3,-9.23,-9.67,-9.67,0,*58
1494306484.02,23358,12.94,72516.3,-9.23,-9.71,-9.71,0,*57
1494306485.22,23359,12.94,72516.0,-9.23,-9.71,-9.71,0,*56
1494306486.45,23360,12.94,72520.5,-9.21,-9.75,-9.67,0,*5D
1494306487.68,23361,12.94,72520.8,-9.21,-9.75,-9.75,0,*5F
1494306488.88,23362,12.94,72522.3,-9.23,-9.79,-9.79,0,*5E
1494306490.11,23363,12.94,72522.3,-9.21,-9.75,-9.67,0,*5E
1494306491.31,23364,12.94,72534.5,-9.23,-9.79,-9.71,0,*50
1494306492.52,23365,12.94,72534.8,-9.23,-9.71,-9.67,0,*5E
1494306493.72,23366,12.94,72522.3,-9.23,-9.67,-9.71,0,*5D
1494306494.92,23367,12.94,72514.8,-9.23,-9.71,-9.71,0,*5B
1494306496.12,23368,12.94,72518.8,-9.23,-9.67,-9.71,0,*53
1494306497.33,23369,12.94,72520.3,-9.23,-9.71,-9.71,0,*55
1494306498.53,23370,12.94,72522.0,-9.23,-9.71,-9.67,0,*5A
1494306499.74,23371,12.94,72526.3,-9.27,-9.71,-9.71,0,*58
1494306500.95,23372,12.94,72522.0,-9.23,-9.71,-9.79,0,*57
1494306502.15,23373,12.94,72520.0,-9.23,-9.71,-9.71,0,*5E
1494306503.36,23374,12.94,72522.3,-9.23,-9.71,-9.71,0,*59
1494306504.56,23375,12.94,72522.8,-9.23,-9.71,-9.71,0,*58
1494306505.76,23376,12.94,72518.8,-9.23,-9.67,-9.71,0,*5C
1494306506.96,23377,12.94,72522.5,-9.23,-9.71,-9.71,0,*5A
1494306508.17,23378,12.94,72526.5,-9.23,-9.71,-9.67,0,*52
1494306509.37,23379,12.94,72528.8,-9.23,-9.71,-9.67,0,*53
1494306510.57,23380,12.94,72530.0,-9.23,-9.67,-9.71,0,*55
1494306511.77,23381,12.94,72530.0,-9.23,-9.67,-9.71,0,*54
1494306512.97,23382,12.94,72524.5,-9.27,-9.67,-9.67,0,*54
1494306514.18,23383,12.94,72522.3,-9.23,-9.71,-9.67,0,*56
1494306515.38,23384,12.94,72516.3,-9.23,-9.67,-9.67,0,*56
1494306516.58,23385,12.94,72512.8,-9.23,-9.67,-9.71,0,*50
1494306517.79,23386,12.94,72512.8,-9.27,-9.71,-9.71,0,*50
1494306518.99,23387,12.94,72514.5,-9.23,-9.71,-9.71,0,*55